Maple Lake, MN

2:54 AM CST on November 18, 2017 (GMT -0600)
Maple Lake Municipal

Weather History for KMGG - December, 2012

Change the Weather History Date:

Monday, December 3, 2012

  Actual Average (KSTC) Record (KSTC)
Temperature  
Mean Temperature 46 °F -  
Max Temperature 52 °F 26 °F 61 °F (1998)
Min Temperature 40 °F 8 °F -28 °F (1940)
Degree Days  
Heating Degree Days 19    
Moisture  
Dew Point 40 °F    
Average Humidity 83    
Maximum Humidity 100    
Minimum Humidity 58    
Precipitation  
Precipitation 0.00 in - - ()
Sea Level Pressure  
Sea Level Pressure 29.69 in    
Wind  
Wind Speed 10 mph (SW)    
Max Wind Speed 17 mph    
Max Gust Speed 29 mph    
Visibility 6 miles    
Events      
Averages and records for this station are not official NWS values.
T = Trace of Precipitation, MM = Missing Value Source: NWS Daily Summary

Daily Weather History Graph

Daily Weather History Graph

Search for Another Location

Airport or City:

Trip Planner

Search our weather history database for the weather conditions in past years. The results will help you decide how hot, cold, wet, or windy it might be!

Date:

Astronomy

Dec. 03, 2012 Rise Set
Actual Time 7:37 AM CST 4:34 PM CST
Civil Twilight 7:04 AM CST 5:07 PM CST
Nautical Twilight 6:27 AM CST 5:44 PM CST
Astronomical Twilight 5:51 AM CST 6:20 PM CST
Moon 9:29 PM CST (12/3) 10:54 AM CST (12/3)
Length of Visible Light 10h 03m
Length of Day
8h 56m
Waning Gibbous, 78% of the Moon is Illuminated
Dec 3
Waning Gibbous
Dec 6
Last Quarter
Dec 13
New
Dec 19
First Quarter
Dec 28
Full

Hourly Weather History & Observations

Time (CST) Temp. Windchill Dew Point Humidity Pressure Visibility Wind Dir Wind Speed Gust Speed Precip Events Conditions
12:15 AM 40.8 °F 35.6 °F 38.5 °F 91% 29.74 in 7.0 mi SSE 8.1 mph - N/A   Clear
12:34 AM 40.6 °F 36.0 °F 38.8 °F 93% 29.73 in 5.0 mi SSE 6.9 mph - N/A   Clear
12:55 AM 40.3 °F 34.4 °F 38.8 °F 95% 29.72 in 5.0 mi SE 9.2 mph - N/A   Clear
1:15 AM 40.3 °F 35.5 °F 39.2 °F 96% 29.71 in 5.0 mi SSE 6.9 mph - N/A   Clear
1:35 AM 40.6 °F 34.8 °F 39.4 °F 95% 29.71 in 5.0 mi SSE 9.2 mph - N/A   Clear
1:54 AM 41.2 °F 35.5 °F 40.1 °F 96% 29.70 in 5.0 mi SSE 9.2 mph - N/A   Clear
2:15 AM 42.3 °F 36.3 °F 40.5 °F 93% 29.70 in 5.0 mi SSE 10.4 mph - N/A   Clear
2:35 AM 42.4 °F 36.5 °F 40.6 °F 93% 29.70 in 5.0 mi SSE 10.4 mph 17.3 mph N/A   Clear
2:55 AM 42.3 °F 35.5 °F 40.6 °F 94% 29.68 in 5.0 mi SSE 12.7 mph - N/A   Clear
3:15 AM 41.9 °F 35.4 °F 40.5 °F 95% 29.67 in 5.0 mi SSE 11.5 mph 17.3 mph N/A   Clear
3:34 AM 42.1 °F 36.1 °F 40.6 °F 95% 29.66 in 4.0 mi SSE 10.4 mph 17.3 mph N/A   Scattered Clouds
3:54 AM 42.8 °F 37.0 °F 41.7 °F 96% 29.65 in 3.0 mi SSE 10.4 mph 18.4 mph N/A   Overcast
4:15 AM 43.7 °F 37.3 °F 42.8 °F 97% 29.64 in 2.5 mi SSE 12.7 mph 21.9 mph N/A   Overcast
4:55 AM 43.9 °F 38.3 °F 43.7 °F 99% 29.63 in 1.2 mi SSE 10.4 mph 18.4 mph N/A   Overcast
5:15 AM 45.0 °F 39.3 °F 44.8 °F 99% 29.61 in 1.2 mi SSE 11.5 mph 17.3 mph N/A   Overcast
5:35 AM 45.5 °F 39.2 °F 45.5 °F 100% 29.61 in 1.2 mi SSE 13.8 mph 20.7 mph N/A   Overcast
5:54 AM 45.7 °F 40.6 °F 45.7 °F 100% 29.60 in 1.2 mi SSE 10.4 mph 20.7 mph N/A   Overcast
6:15 AM 46.4 °F 41.1 °F 46.4 °F 100% 29.58 in 1.2 mi SSE 11.5 mph 20.7 mph N/A   Overcast
6:35 AM 46.8 °F - 46.8 °F 100% 29.58 in 1.5 mi SSE 10.4 mph 17.3 mph N/A   Overcast
6:55 AM 47.3 °F - 47.3 °F 100% 29.58 in 1.5 mi SSE 8.1 mph 19.6 mph N/A   Overcast
7:15 AM 47.7 °F - 47.7 °F 100% 29.58 in 1.5 mi South 9.2 mph 19.6 mph N/A   Overcast
7:35 AM 47.7 °F - 47.7 °F 100% 29.56 in 2.0 mi South 10.4 mph 23.0 mph N/A   Overcast
7:55 AM 48.2 °F - 48.2 °F 100% 29.56 in 3.0 mi South 10.4 mph 20.7 mph N/A   Overcast
8:14 AM 48.6 °F - 48.2 °F 99% 29.56 in 2.5 mi South 8.1 mph 16.1 mph N/A   Overcast
8:35 AM 49.1 °F - 48.4 °F 97% 29.55 in 2.5 mi South 11.5 mph 16.1 mph N/A   Overcast
8:54 AM 49.5 °F - 49.1 °F 99% 29.55 in 1.2 mi South 10.4 mph 18.4 mph N/A   Overcast
9:15 AM 49.6 °F - 49.5 °F 99% 29.55 in 1.0 mi South 11.5 mph - N/A   Overcast
9:34 AM 49.8 °F - 49.5 °F 99% 29.55 in 1.0 mi South 9.2 mph - N/A   Overcast
9:55 AM 50.4 °F - 50.4 °F 100% 29.55 in 1.2 mi SSW 9.2 mph - N/A   Overcast
10:15 AM 50.5 °F - 50.4 °F 99% 29.56 in 1.8 mi SW 11.5 mph 18.4 mph N/A   Overcast
10:35 AM 51.3 °F - 50.9 °F 99% 29.55 in 4.0 mi SW 8.1 mph 16.1 mph N/A   Overcast
10:54 AM 51.8 °F - 50.0 °F 94% 29.55 in 4.0 mi SW 10.4 mph 17.3 mph N/A   Overcast
11:54 AM 51.4 °F - 46.6 °F 83% 29.55 in 7.0 mi WSW 12.7 mph 20.7 mph N/A   Scattered Clouds
12:15 PM 51.1 °F - 44.8 °F 79% 29.56 in 10.0 mi West 13.8 mph 21.9 mph N/A   Scattered Clouds
12:35 PM 51.1 °F - 43.0 °F 74% 29.57 in 10.0 mi West 15.0 mph 26.5 mph N/A   Clear
12:55 PM 50.9 °F - 41.7 °F 71% 29.58 in 10.0 mi WNW 15.0 mph 25.3 mph N/A   Clear
1:14 PM 51.3 °F - 41.9 °F 70% 29.58 in 10.0 mi WNW 13.8 mph 24.2 mph N/A   Clear
1:35 PM 51.3 °F - 41.9 °F 70% 29.59 in 10.0 mi WNW 12.7 mph 27.6 mph N/A   Scattered Clouds
1:54 PM 51.1 °F - 41.4 °F 69% 29.60 in 10.0 mi WNW 15.0 mph 21.9 mph N/A   Scattered Clouds
2:15 PM 51.6 °F - 41.4 °F 68% 29.61 in 10.0 mi WNW 15.0 mph 21.9 mph N/A   Overcast
2:35 PM 52.9 °F - 42.1 °F 67% 29.64 in 10.0 mi WNW 17.3 mph 26.5 mph N/A   Overcast
2:55 PM 50.2 °F - 41.9 °F 73% 29.65 in 10.0 mi WNW 13.8 mph 28.8 mph N/A   Scattered Clouds
3:15 PM 49.1 °F - 41.5 °F 75% 29.67 in 10.0 mi West 13.8 mph 24.2 mph N/A   Scattered Clouds
3:35 PM 49.1 °F - 41.2 °F 74% 29.70 in 10.0 mi WNW 13.8 mph 20.7 mph N/A   Scattered Clouds
3:54 PM 48.2 °F - 40.1 °F 74% 29.71 in 10.0 mi WNW 12.7 mph 19.6 mph N/A   Clear
4:15 PM 47.5 °F - 39.2 °F 73% 29.73 in 10.0 mi West 11.5 mph 24.2 mph N/A   Clear
4:54 PM 45.9 °F 40.8 °F 36.5 °F 70% 29.76 in 10.0 mi West 10.4 mph - N/A   Clear
5:15 PM 45.0 °F 39.3 °F 35.6 °F 70% 29.77 in 10.0 mi West 11.5 mph - N/A   Clear
5:55 PM 43.7 °F 39.1 °F 35.2 °F 72% 29.79 in 10.0 mi West 8.1 mph - N/A   Clear
6:15 PM 43.0 °F 38.2 °F 34.9 °F 73% 29.80 in 10.0 mi West 8.1 mph - N/A   Clear
6:35 PM 41.4 °F 36.8 °F 34.2 °F 76% 29.82 in 10.0 mi WSW 6.9 mph - N/A   Clear
6:55 PM 41.5 °F 37.1 °F 33.8 °F 74% 29.82 in 10.0 mi West 6.9 mph - N/A   Clear
7:14 PM 41.9 °F 38.2 °F 33.4 °F 72% 29.83 in 10.0 mi West 5.8 mph - N/A   Clear
7:35 PM 42.3 °F 36.3 °F 32.9 °F 69% 29.84 in 10.0 mi West 10.4 mph - N/A   Clear
7:55 PM 42.3 °F 36.8 °F 32.9 °F 69% 29.85 in 10.0 mi WSW 9.2 mph - N/A   Clear
8:15 PM 42.4 °F 36.5 °F 32.2 °F 67% 29.85 in 10.0 mi WSW 10.4 mph - N/A   Clear
8:34 PM 42.6 °F 37.2 °F 31.6 °F 65% 29.85 in 10.0 mi West 9.2 mph - N/A   Clear
8:55 PM 43.0 °F 37.2 °F 30.9 °F 62% 29.85 in 10.0 mi WSW 10.4 mph - N/A   Clear
9:15 PM 42.6 °F 36.3 °F 30.2 °F 61% 29.86 in 10.0 mi WSW 11.5 mph - N/A   Clear
9:34 PM 42.8 °F 35.8 °F 29.7 °F 60% 29.86 in 10.0 mi West 13.8 mph 20.7 mph N/A   Clear
9:55 PM 42.8 °F 37.0 °F 28.9 °F 58% 29.87 in 10.0 mi WSW 10.4 mph - N/A   Clear
10:15 PM 42.3 °F 36.3 °F 28.4 °F 58% 29.88 in 10.0 mi WSW 10.4 mph 16.1 mph N/A   Clear
10:54 PM 41.9 °F 36.3 °F 28.4 °F 59% 29.90 in 10.0 mi WSW 9.2 mph - N/A   Clear
11:15 PM 41.9 °F 35.4 °F 28.4 °F 59% 29.91 in 10.0 mi WSW 11.5 mph 17.3 mph N/A   Clear
11:34 PM 41.5 °F 35.4 °F 28.2 °F 59% 29.91 in 10.0 mi WSW 10.4 mph 18.4 mph N/A   Clear